Vorticity
7 5 6 11 14 15 11 7 4 3 7 6 5 6 5 6 3 8 12 2 4 4 -1 3 6 11 7 -1 1 1 -1 1 2 -3 1 13 9 3 4 1 4 3 3 11 10 11 11 10 15 16 17 13 8 11 8 4 6 8 9 7 7 6 4 4 2 2 4 4 5 5 6 6 7 7 6 6 5 5 5 4 4 5 5 5 5 5
4 4 7 11 14 16 13 10 7 3 5 5 5 5 5 8 4 9 17 8 1 -0 -1 0 6 22 24 8 -0 1 3 1 3 3 -1 4 4 2 6 4 4 3 4 9 4 6 12 11 13 18 20 14 9 11 10 6 5 6 9 7 6 6 4 3 2 2 3 3 5 5 7 8 7 6 6 5 5 4 4 4 4 5 5 5 5 5
5 6 8 10 11 14 15 13 10 5 5 5 5 4 6 7 1 12 23 10 3 -1 -3 0 -2 9 23 17 4 -2 -4 2 11 -1 -11 7 8 -2 7 10 5 6 7 7 4 6 11 11 11 17 22 16 9 10 9 8 6 5 8 7 6 6 4 3 2 3 4 3 4 5 7 7 6 6 6 5 6 5 4 4 5 5 5 5 5 5
9 12 10 8 9 12 13 14 13 9 6 5 6 2 5 7 -3 4 15 5 5 5 -0 3 -3 -1 15 14 8 4 -5 -0 9 0 -1 12 3 -7 8 14 8 8 8 7 7 6 8 11 13 17 22 16 9 10 9 9 9 6 6 6 6 5 4 4 3 3 4 4 4 5 7 7 7 7 6 5 6 5 4 4 4 4 5 5 5 5
7 9 9 6 7 9 10 12 13 12 9 6 7 4 2 8 2 0 2 -5 6 13 2 8 11 9 11 5 5 8 4 4 4 6 10 5 -2 3 11 13 11 5 4 6 8 6 4 8 13 18 22 16 9 10 10 8 9 8 6 5 5 6 5 4 4 5 4 5 5 5 7 7 6 6 6 6 6 6 5 4 4 4 4 4 5 5
7 5 7 5 6 7 6 9 11 13 15 9 7 7 2 5 6 9 6 -7 3 16 6 3 5 2 3 2 5 7 3 2 3 6 3 -4 4 12 7 8 8 4 5 5 6 5 3 9 15 18 21 16 10 11 12 9 8 9 7 5 5 5 6 5 5 5 4 5 5 6 6 6 7 7 6 7 6 6 5 4 4 3 4 4 3 4
7 6 6 5 6 8 7 8 8 10 15 14 12 10 6 4 4 9 10 -3 -2 10 10 1 -7 -8 -3 -2 3 13 12 1 -2 4 1 -3 1 2 7 12 2 1 9 6 6 5 2 9 13 14 17 14 10 10 12 11 9 9 8 5 6 5 5 7 6 5 5 6 6 6 6 6 7 7 6 7 6 5 5 4 4 3 3 4 4 4
9 7 5 5 5 7 8 8 10 10 10 15 18 12 8 7 4 4 6 4 -1 0 6 8 5 1 1 6 5 9 18 10 -1 2 2 -1 -4 -4 15 22 7 6 10 5 6 4 2 9 9 11 16 13 10 10 11 13 11 9 9 6 6 6 6 7 6 6 6 6 7 6 6 7 7 7 6 5 6 5 4 4 4 4 4 4 5 4
10 10 5 6 6 5 8 8 11 11 8 14 20 16 10 8 7 4 4 7 0 -4 0 5 14 10 3 9 1 -4 20 24 3 -1 5 4 -4 -3 16 25 17 10 4 1 6 5 4 9 9 13 20 16 11 10 9 12 12 9 9 7 7 7 7 8 7 7 7 7 7 6 6 7 6 6 5 4 5 5 4 5 4 4 5 5 6 5
5 9 8 7 7 6 8 8 9 9 8 12 19 20 12 9 11 5 6 10 -2 -2 3 -4 2 10 2 0 -3 4 28 28 5 -6 2 9 3 5 21 27 16 2 -3 3 7 5 4 6 8 14 21 18 12 12 11 10 11 11 10 9 8 7 7 8 9 8 8 7 7 6 6 7 6 6 6 5 5 5 5 5 5 4 5 6 6 6
3 5 7 8 7 7 6 7 7 6 8 10 17 21 12 9 12 6 6 9 -4 -6 -1 -6 -3 4 4 2 -1 1 5 11 20 9 -2 7 9 10 17 21 22 11 1 9 11 6 5 5 5 11 21 21 12 13 13 9 10 11 12 12 9 10 9 9 10 10 9 8 7 7 6 6 7 6 6 5 5 6 5 5 5 5 5 5 6 6
6 2 3 6 7 8 6 6 6 5 7 9 14 20 14 9 12 15 15 7 -2 -7 -11 -6 -1 -3 4 7 2 7 6 6 25 24 9 7 1 -2 3 14 30 22 3 8 12 3 3 6 5 8 20 22 14 14 14 10 11 11 11 13 11 11 10 9 10 9 9 8 7 8 7 7 7 6 5 6 5 5 5 5 4 5 5 5 5 6
7 5 4 5 5 6 6 6 5 4 6 8 11 15 15 8 -1 7 13 5 3 2 -1 2 -3 -9 -1 -2 -7 11 21 10 10 14 8 6 -2 -9 -1 11 21 21 12 9 6 -2 0 5 5 8 17 21 14 11 13 11 10 11 11 12 11 10 9 8 9 9 9 9 8 8 8 8 8 6 5 5 6 5 5 5 4 4 6 6 6 5
5 5 6 5 4 5 6 7 5 3 3 5 7 6 7 5 -3 -1 5 6 6 5 11 11 -3 -7 -6 -11 -11 -4 1 -1 2 10 3 5 12 -2 -6 1 -2 1 4 -2 -2 3 4 4 6 8 14 21 18 10 10 10 8 9 10 10 11 9 8 7 7 8 8 8 9 8 8 8 8 6 5 5 5 5 5 5 5 5 5 5 6 6
6 3 5 5 6 6 6 6 6 7 6 5 6 6 7 8 8 10 9 12 11 4 13 11 -0 4 -1 -3 7 -0 -3 -7 -20 -9 0 6 17 2 -9 -5 -12 -9 3 2 5 10 7 3 5 7 8 15 19 12 9 9 7 8 8 8 9 8 8 7 6 8 9 8 8 8 8 8 8 7 5 5 5 5 6 6 7 7 6 5 5 5
8 5 6 7 8 6 7 7 6 7 8 8 5 4 9 11 12 14 9 11 14 8 13 9 -1 8 3 2 11 2 7 7 -20 -14 3 3 15 9 -4 4 13 22 29 23 17 14 12 6 2 5 6 12 21 18 11 9 7 8 8 7 8 8 6 5 4 5 7 8 8 8 8 7 7 8 6 6 6 6 7 8 9 9 9 7 5 4
12 9 1 4 9 6 5 8 9 7 6 7 7 2 4 10 13 16 10 8 13 9 13 12 7 14 11 11 20 9 11 21 12 15 8 -8 9 15 0 13 32 24 8 2 6 14 17 9 3 5 6 13 22 18 12 10 8 7 8 7 7 8 8 6 6 5 4 6 6 6 7 7 7 7 7 7 6 8 8 9 10 9 9 9 7 6
14 10 1 3 8 6 5 7 9 13 9 4 5 4 7 8 7 14 13 6 8 8 11 14 11 16 17 14 18 17 17 22 26 37 24 -3 5 12 0 7 12 -10 -19 -7 5 16 21 12 5 4 3 13 21 18 14 11 8 7 7 8 7 8 9 7 7 8 7 6 5 6 7 7 8 7 7 8 7 8 8 7 9 9 10 11 10 9
15 7 15 18 7 2 7 8 6 8 8 4 4 5 8 8 5 6 5 2 6 9 9 12 12 12 13 10 10 17 24 24 23 32 31 18 17 13 -1 -1 -1 -13 -4 14 15 20 22 10 3 2 2 9 16 20 17 10 8 8 7 7 8 9 10 8 8 9 8 7 6 7 8 7 8 8 8 10 9 9 9 8 7 7 8 8 9 9
10 -2 11 22 16 11 11 11 11 9 8 6 5 6 6 10 13 10 4 2 8 10 7 12 15 9 8 13 15 16 14 12 18 24 21 18 22 18 2 -1 5 7 12 16 16 22 21 11 6 4 2 5 12 20 19 11 9 8 7 7 6 7 9 9 11 11 9 10 9 8 9 8 8 8 8 9 10 10 10 9 6 6 6 5 6 7
11 4 -1 6 18 26 22 15 7 4 10 8 -1 0 1 3 10 12 10 8 8 8 5 8 14 13 17 21 16 13 11 7 14 22 19 12 14 20 15 3 3 11 13 13 15 17 15 12 9 6 4 8 15 21 20 13 9 7 6 7 5 7 8 7 10 11 10 10 9 8 7 7 7 6 7 8 9 9 8 9 7 6 6 5 4 5
12 14 3 -3 4 17 25 27 13 -3 2 9 5 3 -0 -4 -0 4 7 9 10 10 2 -0 9 15 19 20 8 3 11 14 13 17 20 17 10 13 16 6 2 9 9 11 15 12 9 11 8 4 6 9 13 21 23 16 10 9 8 6 6 7 7 8 8 8 8 8 7 7 5 5 6 5 6 8 7 7 6 5 5 4 4 5 4 5
5 5 0 -5 -4 4 12 21 28 21 11 8 9 11 7 1 -2 -2 3 6 8 12 6 -2 -0 -1 2 16 17 8 6 12 17 15 15 20 19 14 10 5 6 8 6 8 13 10 7 8 5 3 7 9 8 13 22 22 15 11 9 7 7 7 7 9 7 6 7 7 6 7 6 6 7 6 7 8 7 6 5 3 4 5 5 6 7 9
9 6 4 -3 -3 8 7 2 11 24 27 21 12 10 9 9 8 4 6 8 7 10 10 4 -6 -16 -7 16 23 11 0 4 16 18 12 15 16 10 6 5 7 9 7 6 10 11 8 3 2 4 6 8 5 4 13 23 21 16 13 10 9 9 8 7 7 7 7 6 6 6 7 8 8 8 9 10 8 5 4 4 5 7 8 8 10 11
11 9 10 2 -1 7 15 13 0 -1 18 27 17 9 9 12 15 13 9 8 10 11 9 11 3 -14 -10 10 14 3 -6 -3 6 12 15 19 14 5 6 11 13 12 7 3 7 15 13 4 2 4 5 6 6 4 7 14 20 20 16 13 10 8 9 8 8 9 8 7 7 6 8 9 9 10 10 8 8 5 4 6 6 7 9 10 11 11
11 6 4 2 2 -1 8 19 7 -6 6 18 18 17 18 14 9 12 14 5 5 10 8 12 16 0 -13 -6 3 5 4 2 -5 -8 5 20 17 7 8 14 14 10 9 8 11 19 17 9 6 6 7 8 6 7 10 9 11 15 16 17 14 10 11 11 10 11 10 9 9 8 10 10 9 9 9 7 6 4 4 5 5 7 8 9 11 10
15 10 6 3 -1 -4 4 10 5 4 5 9 17 20 21 17 1 2 18 12 1 7 10 9 16 15 2 -8 -8 -3 0 2 -2 -9 -4 12 19 12 6 10 12 5 6 12 15 19 18 11 11 10 7 8 7 6 10 9 7 9 12 16 18 15 15 15 15 15 14 12 13 12 11 11 9 7 6 5 4 3 4 5 6 6 7 8 10 10
15 12 11 5 -11 -6 7 -3 -2 19 14 2 11 17 20 21 1 -11 6 18 9 7 11 10 9 14 15 8 0 -4 -6 -4 -0 2 3 9 23 24 6 1 10 6 2 7 12 19 22 14 10 10 6 7 10 6 6 8 6 6 8 10 12 13 12 14 15 16 16 15 14 13 11 9 8 6 5 5 4 4 6 7 7 7 7 8 8 9
15 13 10 4 -11 -4 4 -13 -3 29 24 3 8 19 25 24 11 -4 -2 13 21 15 11 9 8 11 10 6 7 6 6 5 1 4 11 10 17 27 16 2 7 8 1 -1 3 13 23 19 7 6 5 4 8 7 5 7 7 4 5 5 6 7 6 7 10 11 12 13 11 11 10 8 7 7 6 5 5 6 6 7 7 7 6 7 8 8
15 15 11 2 -6 -2 -4 -11 2 18 13 3 5 21 31 22 17 13 -3 1 19 22 17 14 17 23 15 5 8 8 11 17 10 3 6 8 12 22 21 10 4 5 2 0 1 4 14 20 12 8 8 2 2 7 6 7 8 5 4 3 2 3 4 4 6 8 9 10 10 8 8 7 7 7 7 7 7 7 6 5 6 6 6 7 8 8
11 17 16 1 -3 -0 -13 -11 8 7 3 3 -1 17 31 13 13 23 2 -7 7 14 18 16 12 18 16 7 10 15 19 22 17 10 4 4 14 19 18 16 9 5 5 3 2 3 5 12 14 13 11 2 -2 4 6 6 8 7 6 7 5 4 5 6 7 6 6 7 8 9 10 10 10 9 9 10 9 8 8 6 5 5 6 7 7 8
7 18 18 0 -0 2 -19 -11 16 9 3 7 -2 12 28 5 5 25 11 -6 1 10 16 11 3 9 9 2 8 20 28 19 6 11 10 0 7 14 13 18 14 7 9 5 0 4 6 7 10 11 10 6 1 4 6 6 7 7 6 7 7 6 7 8 7 4 4 6 7 9 12 12 12 11 11 12 13 13 11 8 6 4 5 7 8 7
7 16 20 7 2 2 -14 -6 18 11 0 4 -3 9 27 7 -2 20 21 3 -3 8 18 7 0 10 6 4 14 13 6 0 -8 2 13 2 -1 7 11 17 14 5 8 9 3 2 2 1 5 7 7 7 5 4 6 6 6 6 4 3 5 6 6 7 6 3 2 3 3 4 6 10 13 13 12 11 13 14 13 12 11 8 6 7 8 8
9 11 20 15 -3 -6 -5 -5 9 15 4 -6 -8 10 26 11 -1 12 23 16 -3 -4 17 15 -1 8 19 20 27 21 8 4 -2 2 14 8 -1 1 3 12 18 8 -0 -0 -2 -2 0 1 2 3 3 6 6 6 7 7 5 4 4 3 4 4 3 4 4 2 1 1 2 2 3 8 12 13 14 13 10 12 15 17 16 12 9 8 8 9
14 8 18 24 -6 -18 -2 -3 -3 10 7 -6 1 20 20 7 7 8 8 22 12 -13 5 23 2 1 25 19 7 16 24 14 1 3 12 11 6 1 -6 1 16 16 9 5 3 4 7 5 5 7 8 9 8 7 7 7 6 5 4 4 3 3 4 5 4 3 3 2 2 2 2 4 6 9 14 15 12 11 13 15 14 11 9 9 9 10
19 10 10 21 2 -20 -10 3 3 4 7 7 11 19 11 -1 11 17 4 14 22 -7 -13 15 11 -4 7 8 -6 -0 12 4 -4 1 3 3 9 5 -3 2 11 12 13 13 11 13 10 3 4 9 11 11 9 8 7 7 7 7 5 4 4 4 5 6 5 6 7 6 4 2 2 4 6 7 10 14 16 13 10 11 11 9 9 10 10 10
16 18 12 12 11 -7 -19 -5 9 9 12 12 3 8 18 5 0 15 14 8 17 12 -10 -4 15 7 -5 1 3 -4 0 4 -0 -4 -7 -3 7 6 1 6 8 6 9 9 11 17 17 10 9 9 8 8 7 7 7 6 6 9 8 6 5 4 4 4 3 3 5 9 8 4 1 4 6 5 4 10 19 18 11 7 8 8 8 8 10 11
10 19 20 8 10 9 -12 -19 1 21 25 7 -10 4 26 16 -5 -2 12 10 10 18 3 -14 4 17 3 1 0 -9 -1 9 -4 -13 -7 -1 5 4 0 3 5 5 9 8 7 13 15 15 16 15 15 12 9 10 10 5 4 6 7 7 5 4 4 4 3 1 2 7 10 6 2 4 5 4 -0 2 14 24 19 10 7 9 8 7 9 11
12 19 26 15 7 9 -2 -25 -24 17 40 3 -19 13 29 11 -1 -1 7 15 10 10 10 -4 -5 7 7 7 5 -2 4 3 -14 -13 2 5 6 7 2 2 7 6 5 6 8 9 10 13 16 17 18 14 12 15 13 8 7 6 5 6 5 4 6 5 4 3 1 4 9 7 3 3 6 6 2 0 10 24 26 19 14 11 8 7 8 8
17 21 24 21 11 2 2 -13 -38 -9 42 14 -28 9 35 2 -13 4 20 27 14 2 8 8 -1 1 5 7 9 6 3 -1 -7 -1 8 8 8 9 5 5 7 5 3 4 6 7 7 10 13 14 17 17 15 15 13 11 11 9 7 7 5 4 7 6 6 7 5 5 7 7 5 5 6 7 4 2 8 16 19 20 20 15 9 7 7 8
17 29 23 18 18 3 -6 2 -15 -23 20 27 -19 -8 30 8 -24 -8 21 29 14 2 8 8 2 6 7 4 3 -1 -5 -2 4 7 12 15 10 5 8 9 4 3 3 2 3 7 7 7 9 12 15 17 17 15 13 13 15 15 16 16 13 11 11 10 9 10 10 9 7 6 6 5 7 8 3 1 6 10 9 13 19 18 13 9 7 7
9 28 28 14 22 18 -13 -12 9 -1 -1 18 3 -10 9 9 -15 -14 10 22 15 6 6 5 1 4 6 2 1 1 -1 -1 -1 -0 11 22 17 9 13 14 6 2 1 -1 -0 4 5 3 4 6 8 10 14 17 16 14 15 17 18 19 19 17 15 14 14 13 15 15 12 10 7 4 6 9 3 -1 5 8 5 6 12 17 16 11 7 5
10 19 33 17 14 30 5 -26 -2 18 2 -4 5 6 3 -2 -6 -6 -1 10 18 11 2 2 3 2 0 -2 -2 4 6 3 -0 -2 3 11 14 12 14 15 12 7 2 -1 0 1 2 3 1 1 3 4 7 12 16 14 15 17 17 17 18 19 17 18 18 17 19 20 17 15 11 5 6 9 5 0 4 8 8 5 5 8 10 8 6 6
17 12 27 31 19 26 24 -7 -16 6 9 -6 -1 19 16 -2 -2 7 -2 -5 11 16 5 2 1 -0 0 -3 -6 3 13 12 7 3 0 1 7 11 10 11 14 13 5 0 1 1 0 2 3 4 5 5 4 7 11 12 11 12 12 12 13 16 17 18 19 20 22 21 19 17 15 9 8 8 3 -0 1 4 9 8 5 3 3 1 2 5
26 16 3 16 28 24 22 13 -4 -4 7 0 -7 15 27 3 -10 7 8 -5 -2 7 8 5 -1 -3 2 -3 -11 -4 7 3 -3 0 2 2 4 7 8 8 11 14 10 4 3 5 3 1 3 5 5 7 7 6 7 8 8 8 9 9 8 9 9 10 12 15 20 20 17 16 16 15 13 9 5 3 2 3 7 10 7 4 4 2 -0 0
24 32 6 -4 16 27 25 23 11 -0 9 9 -11 -2 30 29 4 -1 2 -5 -9 -4 3 5 -0 -4 -0 0 -7 -10 -13 -16 -9 4 7 2 -1 3 9 11 10 12 13 7 2 4 6 3 3 4 7 9 9 8 8 7 7 8 8 7 6 4 3 4 5 6 11 15 15 14 16 17 17 13 8 7 6 5 8 11 8 5 6 7 4 2
14 23 23 9 5 13 25 34 22 1 5 23 11 -10 6 34 35 22 15 5 -8 -11 -4 3 2 -1 -1 1 -7 -19 -24 -16 1 9 4 0 2 6 9 10 8 9 12 10 4 2 5 6 5 5 6 7 7 9 9 6 7 10 9 7 6 4 3 3 4 4 6 9 10 10 11 14 16 14 10 9 8 7 9 12 9 4 4 7 7 6
22 12 19 27 16 1 4 24 34 15 -1 20 35 6 -17 2 22 28 34 32 14 -2 -7 -5 -1 1 0 -2 -8 -15 -15 -7 0 4 5 7 10 11 9 6 4 5 10 10 8 5 5 6 7 7 6 7 8 8 7 6 7 8 8 7 7 7 6 6 6 6 6 7 9 9 8 9 12 13 12 11 9 7 9 11 9 5 3 4 5 5
20 11 10 22 26 16 3 4 27 32 13 19 42 23 -12 -11 2 4 15 30 31 24 11 -3 -6 -3 -4 -9 -10 -8 -3 -4 -9 -7 2 5 6 10 12 8 3 3 6 7 8 8 5 5 7 8 6 7 8 6 5 6 6 6 8 8 7 7 8 7 7 7 7 7 8 7 7 7 8 9 11 12 10 8 8 9 8 5 4 2 1 1
14 14 13 12 12 17 17 8 15 23 7 5 33 40 13 -2 2 2 4 9 17 29 34 24 10 4 4 6 4 2 5 5 -3 -6 1 8 11 10 9 10 10 5 2 5 7 7 5 4 5 7 7 7 8 7 6 6 6 6 7 8 8 9 9 8 9 9 8 8 7 6 7 7 6 7 11 12 11 10 9 8 6 5 4 3 2 2
13 12 16 19 9 2 4 6 13 21 -0 -26 -9 30 35 13 0 3 8 7 1 5 21 36 33 18 9 12 13 14 20 24 17 6 -1 6 19 16 4 6 15 11 4 4 6 7 7 6 3 4 6 7 7 8 7 7 7 8 8 8 8 8 9 9 10 9 8 8 8 8 8 7 6 8 10 9 10 11 11 9 7 4 4 5 5 6
Height
5841 5841 5843 5848 5853 5854 5856 5858 5861 5862 5863 5865 5867 5868 5872 5874 5877 5880 5881 5883 5886 5887 5888 5890 5892 5895 5896 5895 5894 5892 5888 5888 5894 5897 5898 5898 5898 5900 5901 5901 5901 5901 5902 5903 5903 5904 5905 5906 5907 5908 5909 5911 5913 5913 5914 5915 5916 5918 5920 5922 5924 5925 5927 5928 5930 5932 5933 5935 5936 5937 5939 5940 5941 5941 5942 5942 5943 5944 5945 5946 5947 5947 5948 5948 5949 5949
5835 5837 5845 5849 5850 5851 5853 5855 5857 5858 5860 5863 5864 5865 5868 5871 5874 5879 5880 5881 5886 5888 5888 5889 5891 5892 5894 5895 5893 5890 5888 5889 5892 5896 5897 5898 5898 5898 5899 5900 5900 5901 5902 5902 5903 5903 5904 5905 5906 5907 5908 5910 5912 5913 5914 5915 5915 5917 5919 5921 5923 5925 5926 5927 5929 5931 5933 5934 5936 5937 5939 5940 5941 5941 5942 5943 5944 5945 5946 5947 5947 5948 5949 5949 5950 5950
5832 5839 5847 5847 5845 5847 5848 5851 5853 5855 5857 5859 5861 5863 5865 5868 5871 5876 5879 5880 5884 5887 5887 5888 5889 5890 5892 5894 5891 5887 5887 5889 5891 5894 5897 5898 5899 5899 5899 5899 5900 5901 5902 5902 5902 5903 5904 5905 5905 5905 5907 5909 5911 5912 5914 5915 5916 5917 5918 5920 5922 5924 5925 5926 5928 5930 5932 5934 5936 5937 5938 5940 5941 5942 5942 5943 5944 5945 5946 5947 5948 5949 5949 5950 5950 5951
5834 5841 5843 5841 5841 5843 5844 5847 5849 5850 5852 5855 5858 5860 5863 5866 5869 5873 5877 5880 5882 5885 5887 5887 5888 5889 5890 5891 5890 5887 5886 5887 5889 5892 5895 5897 5899 5900 5899 5898 5899 5901 5901 5901 5902 5902 5903 5904 5904 5904 5905 5907 5910 5912 5914 5915 5917 5917 5918 5919 5921 5922 5924 5926 5928 5930 5932 5934 5935 5937 5938 5939 5941 5942 5942 5943 5944 5945 5946 5947 5948 5949 5950 5950 5951 5951
5833 5838 5836 5835 5838 5839 5841 5843 5844 5846 5848 5851 5855 5857 5861 5866 5868 5870 5876 5880 5882 5883 5885 5886 5886 5886 5886 5888 5889 5888 5886 5884 5885 5888 5891 5894 5897 5898 5898 5898 5899 5900 5900 5901 5902 5901 5902 5903 5903 5903 5904 5907 5909 5911 5913 5914 5916 5917 5918 5918 5919 5921 5923 5925 5927 5929 5931 5933 5935 5937 5938 5939 5940 5941 5942 5943 5944 5945 5946 5947 5948 5949 5950 5951 5951 5952
5830 5833 5830 5831 5833 5836 5838 5839 5841 5843 5845 5849 5852 5856 5860 5864 5866 5868 5872 5878 5881 5881 5882 5883 5883 5883 5884 5886 5887 5887 5887 5884 5881 5883 5886 5890 5893 5896 5898 5899 5898 5899 5899 5901 5901 5901 5902 5902 5902 5902 5903 5906 5908 5910 5912 5913 5915 5916 5917 5918 5919 5920 5922 5924 5926 5928 5931 5933 5934 5936 5937 5938 5940 5941 5942 5943 5945 5946 5947 5947 5948 5949 5950 5951 5952 5952
5825 5827 5826 5827 5831 5833 5835 5836 5839 5841 5842 5845 5850 5855 5859 5860 5863 5866 5868 5872 5876 5879 5880 5880 5881 5882 5882 5883 5885 5886 5887 5884 5880 5880 5883 5886 5890 5894 5897 5898 5898 5898 5899 5900 5901 5901 5901 5901 5901 5901 5902 5904 5906 5908 5910 5912 5914 5915 5916 5918 5919 5920 5921 5924 5926 5928 5930 5932 5933 5935 5937 5938 5939 5941 5943 5944 5945 5946 5947 5947 5948 5949 5950 5951 5952 5953
5821 5823 5822 5825 5829 5829 5831 5834 5837 5839 5840 5843 5848 5853 5855 5857 5859 5862 5864 5865 5869 5875 5877 5877 5878 5880 5880 5880 5883 5884 5885 5885 5880 5878 5881 5883 5886 5891 5895 5897 5897 5897 5897 5899 5900 5900 5900 5900 5900 5900 5901 5903 5905 5907 5909 5911 5914 5915 5916 5917 5919 5920 5922 5924 5926 5928 5929 5931 5932 5934 5936 5938 5940 5941 5943 5944 5945 5946 5947 5948 5949 5950 5951 5951 5952 5953
5819 5820 5820 5823 5825 5825 5829 5833 5836 5837 5837 5840 5845 5848 5851 5854 5856 5859 5861 5862 5865 5869 5871 5873 5875 5876 5876 5877 5880 5882 5882 5883 5879 5877 5878 5881 5884 5888 5892 5894 5895 5895 5896 5897 5898 5898 5899 5899 5899 5900 5901 5903 5905 5907 5908 5910 5912 5914 5915 5916 5918 5920 5922 5924 5926 5927 5929 5930 5932 5933 5936 5938 5940 5941 5943 5944 5945 5946 5947 5948 5949 5950 5951 5952 5953 5953
5813 5815 5816 5817 5820 5823 5827 5831 5832 5833 5834 5838 5842 5844 5848 5850 5853 5856 5857 5858 5861 5860 5862 5868 5871 5872 5873 5874 5876 5878 5878 5879 5879 5876 5875 5878 5882 5885 5888 5891 5893 5894 5895 5895 5896 5896 5897 5897 5898 5899 5901 5903 5904 5906 5907 5908 5910 5913 5915 5916 5917 5919 5921 5923 5925 5927 5928 5930 5932 5933 5935 5938 5940 5941 5943 5944 5945 5946 5948 5949 5950 5951 5951 5952 5953 5953
5807 5810 5810 5812 5816 5820 5823 5826 5828 5829 5831 5835 5838 5840 5843 5845 5848 5851 5853 5857 5855 5851 5854 5862 5866 5869 5869 5869 5872 5874 5875 5877 5878 5876 5872 5874 5879 5882 5884 5888 5890 5893 5894 5894 5895 5895 5896 5896 5897 5899 5900 5902 5903 5904 5905 5907 5909 5912 5914 5916 5917 5919 5920 5922 5924 5926 5928 5930 5932 5934 5935 5937 5939 5941 5942 5944 5945 5947 5948 5949 5950 5951 5952 5952 5953 5954
5800 5802 5804 5807 5812 5815 5818 5821 5824 5826 5828 5831 5833 5835 5837 5840 5843 5845 5848 5852 5847 5845 5853 5859 5861 5863 5863 5865 5869 5871 5873 5875 5877 5876 5871 5871 5877 5880 5882 5885 5888 5891 5893 5893 5893 5895 5895 5896 5897 5898 5899 5900 5901 5903 5905 5906 5907 5910 5913 5915 5917 5918 5920 5921 5923 5925 5927 5929 5931 5934 5936 5937 5939 5941 5942 5944 5945 5947 5948 5949 5950 5951 5952 5952 5953 5954
5794 5798 5801 5804 5807 5810 5813 5816 5819 5821 5823 5825 5827 5830 5832 5834 5838 5839 5841 5843 5841 5844 5854 5858 5859 5858 5857 5861 5866 5867 5870 5873 5874 5874 5871 5870 5874 5878 5880 5884 5887 5890 5891 5891 5892 5894 5894 5895 5896 5897 5898 5899 5900 5901 5903 5905 5906 5908 5911 5914 5916 5917 5919 5920 5922 5924 5926 5929 5931 5933 5935 5937 5939 5940 5942 5944 5945 5947 5948 5949 5950 5951 5952 5952 5953 5954
5791 5795 5796 5800 5804 5806 5809 5811 5813 5815 5819 5821 5823 5825 5828 5831 5833 5834 5837 5839 5840 5845 5851 5856 5857 5854 5854 5859 5863 5863 5867 5870 5872 5872 5871 5870 5872 5876 5878 5882 5886 5888 5890 5891 5892 5892 5893 5894 5895 5895 5897 5898 5899 5900 5902 5904 5905 5907 5909 5912 5914 5916 5917 5919 5921 5923 5925 5927 5930 5932 5935 5937 5939 5940 5942 5943 5945 5946 5947 5949 5950 5951 5951 5952 5953 5953
5785 5788 5792 5796 5799 5802 5805 5807 5810 5814 5817 5820 5823 5825 5827 5829 5830 5832 5835 5837 5840 5843 5847 5851 5851 5849 5852 5858 5861 5862 5865 5868 5870 5870 5869 5868 5870 5874 5876 5879 5882 5886 5888 5889 5890 5890 5892 5893 5894 5894 5895 5897 5898 5899 5901 5903 5905 5907 5909 5910 5912 5914 5916 5917 5919 5921 5924 5926 5929 5931 5934 5936 5938 5939 5941 5943 5944 5945 5947 5948 5949 5950 5951 5952 5952 5953
5777 5783 5790 5793 5794 5799 5803 5805 5808 5811 5814 5818 5821 5821 5823 5826 5829 5831 5834 5836 5839 5841 5842 5844 5845 5847 5852 5856 5859 5860 5862 5866 5867 5868 5867 5865 5866 5870 5873 5875 5879 5883 5885 5887 5888 5890 5891 5892 5892 5893 5894 5896 5897 5898 5900 5903 5904 5906 5908 5909 5911 5912 5914 5915 5917 5919 5921 5924 5927 5930 5933 5935 5937 5939 5940 5942 5943 5944 5946 5947 5948 5949 5950 5951 5952 5952
5771 5779 5786 5788 5790 5795 5799 5802 5804 5806 5810 5814 5815 5817 5821 5825 5828 5830 5831 5833 5835 5836 5838 5841 5843 5847 5851 5852 5854 5856 5858 5862 5864 5865 5865 5862 5862 5865 5868 5872 5877 5880 5883 5886 5887 5888 5889 5890 5891 5892 5893 5894 5896 5898 5900 5902 5904 5905 5907 5908 5909 5911 5913 5914 5916 5918 5920 5922 5925 5929 5931 5934 5936 5938 5939 5940 5941 5943 5944 5946 5947 5948 5949 5950 5951 5951
5766 5774 5778 5781 5786 5791 5795 5798 5800 5802 5806 5809 5811 5815 5820 5823 5825 5827 5827 5829 5831 5832 5836 5840 5841 5844 5846 5847 5850 5852 5853 5857 5859 5861 5862 5859 5857 5859 5863 5868 5874 5878 5881 5883 5885 5885 5887 5889 5889 5890 5892 5893 5895 5897 5899 5901 5902 5904 5905 5906 5908 5910 5911 5913 5915 5917 5919 5921 5924 5927 5930 5932 5934 5936 5938 5939 5940 5942 5943 5944 5945 5947 5948 5949 5950 5950
5761 5766 5770 5776 5782 5787 5791 5793 5795 5798 5803 5806 5809 5812 5815 5817 5819 5821 5822 5825 5828 5831 5834 5837 5838 5840 5840 5842 5847 5850 5850 5852 5854 5856 5858 5857 5855 5855 5859 5864 5869 5875 5878 5880 5882 5882 5884 5886 5888 5889 5890 5892 5894 5896 5897 5899 5901 5902 5904 5905 5907 5909 5910 5912 5913 5916 5918 5921 5923 5926 5928 5930 5933 5935 5936 5938 5939 5940 5941 5942 5943 5945 5946 5947 5948 5949
5754 5758 5764 5771 5777 5782 5784 5785 5787 5793 5799 5803 5804 5806 5809 5813 5816 5818 5820 5823 5827 5829 5831 5834 5835 5836 5837 5839 5843 5846 5848 5849 5850 5851 5853 5855 5854 5854 5857 5861 5866 5871 5875 5878 5879 5880 5882 5884 5886 5888 5889 5891 5893 5894 5896 5898 5899 5901 5902 5904 5906 5907 5909 5911 5913 5915 5917 5919 5922 5924 5926 5929 5931 5933 5935 5936 5938 5939 5940 5941 5942 5943 5944 5945 5946 5947
5748 5752 5758 5765 5772 5776 5776 5777 5782 5789 5794 5797 5798 5798 5802 5807 5812 5815 5818 5821 5825 5827 5829 5831 5833 5834 5837 5839 5839 5841 5844 5846 5848 5849 5850 5852 5852 5852 5856 5860 5863 5868 5873 5875 5876 5878 5880 5882 5883 5885 5886 5888 5890 5892 5894 5896 5898 5900 5901 5903 5905 5906 5908 5910 5911 5913 5915 5918 5920 5922 5925 5927 5929 5931 5932 5934 5936 5937 5938 5939 5941 5942 5943 5944 5945 5946
5738 5744 5751 5758 5765 5769 5771 5775 5781 5786 5791 5794 5796 5796 5799 5803 5809 5812 5813 5817 5822 5825 5828 5830 5832 5834 5836 5837 5836 5838 5841 5843 5846 5847 5848 5849 5850 5850 5853 5858 5861 5865 5870 5873 5874 5876 5878 5879 5881 5882 5884 5886 5889 5891 5894 5895 5897 5898 5900 5902 5904 5905 5907 5908 5910 5911 5913 5916 5918 5920 5922 5925 5927 5929 5930 5932 5934 5935 5936 5938 5939 5940 5941 5942 5943 5944
5726 5736 5745 5753 5758 5763 5770 5776 5778 5782 5788 5792 5795 5796 5798 5801 5805 5808 5810 5815 5820 5823 5826 5829 5831 5833 5834 5833 5834 5837 5838 5840 5843 5845 5846 5847 5847 5848 5851 5855 5858 5862 5867 5871 5873 5874 5875 5877 5878 5880 5882 5885 5888 5890 5892 5894 5896 5897 5899 5901 5903 5904 5905 5906 5908 5910 5912 5914 5917 5919 5921 5923 5925 5927 5929 5930 5932 5933 5935 5936 5938 5939 5940 5941 5941 5942
5724 5733 5741 5749 5755 5759 5767 5773 5774 5778 5783 5786 5790 5793 5795 5797 5801 5805 5809 5814 5817 5820 5823 5826 5828 5831 5832 5832 5833 5835 5836 5837 5840 5842 5844 5845 5845 5847 5850 5853 5855 5858 5863 5868 5871 5873 5873 5874 5876 5878 5881 5884 5886 5889 5891 5893 5894 5896 5898 5900 5901 5903 5904 5905 5907 5909 5911 5913 5915 5917 5920 5922 5923 5925 5927 5929 5930 5931 5933 5934 5936 5937 5938 5939 5939 5940
5720 5727 5734 5745 5752 5754 5760 5767 5769 5771 5774 5778 5783 5787 5792 5795 5798 5802 5806 5810 5813 5816 5819 5822 5825 5829 5832 5832 5833 5833 5834 5836 5837 5840 5842 5843 5843 5845 5848 5851 5854 5856 5860 5864 5868 5871 5871 5872 5874 5877 5880 5883 5885 5887 5890 5891 5893 5894 5896 5898 5899 5901 5902 5904 5906 5907 5909 5912 5914 5916 5918 5920 5922 5924 5925 5927 5928 5929 5931 5933 5934 5935 5936 5937 5937 5938
5713 5720 5728 5737 5743 5747 5753 5759 5761 5763 5767 5773 5777 5782 5787 5793 5796 5798 5802 5806 5809 5812 5815 5819 5823 5826 5829 5831 5832 5832 5833 5834 5835 5837 5840 5841 5841 5842 5845 5849 5852 5854 5857 5860 5864 5868 5869 5870 5873 5877 5879 5882 5884 5886 5888 5890 5891 5893 5894 5895 5897 5899 5900 5902 5904 5906 5908 5910 5912 5915 5917 5918 5920 5922 5923 5925 5926 5927 5929 5931 5932 5933 5934 5935 5935 5936
5709 5716 5723 5730 5736 5742 5748 5755 5760 5762 5764 5767 5772 5777 5782 5789 5794 5796 5798 5802 5806 5810 5813 5816 5821 5823 5825 5829 5831 5831 5832 5833 5833 5834 5837 5839 5840 5841 5843 5846 5850 5852 5853 5856 5861 5864 5866 5869 5872 5875 5877 5880 5882 5884 5886 5888 5890 5891 5892 5893 5895 5897 5899 5901 5903 5905 5906 5909 5911 5913 5915 5917 5918 5920 5921 5923 5924 5926 5927 5929 5930 5931 5932 5933 5933 5934
5702 5710 5718 5725 5731 5736 5743 5751 5756 5759 5762 5765 5769 5775 5779 5784 5790 5792 5795 5799 5804 5808 5811 5814 5818 5820 5821 5825 5828 5829 5830 5832 5832 5831 5833 5837 5839 5840 5841 5844 5847 5850 5851 5853 5856 5860 5863 5866 5869 5872 5874 5876 5879 5882 5884 5886 5887 5889 5891 5892 5894 5895 5898 5899 5901 5903 5905 5907 5909 5911 5913 5915 5916 5918 5919 5920 5922 5924 5925 5927 5928 5929 5929 5930 5931 5932
5696 5704 5711 5717 5724 5731 5738 5746 5748 5752 5759 5762 5765 5772 5776 5780 5785 5789 5793 5797 5801 5805 5809 5812 5815 5817 5819 5822 5824 5825 5828 5830 5830 5829 5831 5834 5836 5839 5840 5842 5845 5847 5848 5850 5853 5857 5861 5864 5867 5869 5872 5874 5876 5879 5882 5884 5886 5888 5889 5891 5893 5894 5896 5898 5900 5902 5904 5906 5908 5910 5911 5913 5914 5916 5917 5918 5920 5922 5923 5924 5925 5926 5927 5928 5929 5930
5690 5698 5704 5711 5719 5725 5733 5739 5741 5745 5753 5757 5761 5767 5773 5777 5782 5787 5792 5797 5800 5803 5808 5811 5813 5815 5816 5818 5820 5822 5824 5826 5827 5827 5829 5832 5834 5837 5839 5840 5843 5845 5846 5848 5851 5855 5859 5862 5865 5867 5869 5871 5874 5877 5880 5883 5885 5887 5889 5890 5892 5894 5896 5897 5899 5901 5903 5905 5907 5908 5910 5911 5912 5914 5915 5916 5918 5919 5920 5921 5923 5924 5925 5926 5927 5928
5684 5692 5699 5707 5716 5724 5731 5736 5738 5741 5747 5753 5757 5762 5769 5775 5779 5784 5790 5795 5798 5802 5806 5810 5811 5812 5813 5814 5817 5820 5821 5822 5823 5825 5827 5830 5832 5834 5837 5839 5841 5843 5845 5847 5850 5853 5856 5859 5862 5865 5868 5870 5872 5875 5878 5881 5883 5885 5887 5889 5891 5893 5895 5897 5899 5900 5902 5904 5905 5906 5908 5909 5911 5912 5913 5914 5915 5916 5917 5918 5920 5921 5922 5924 5924 5925
5681 5689 5696 5703 5713 5723 5729 5732 5735 5737 5742 5748 5753 5758 5764 5771 5775 5781 5786 5792 5796 5800 5804 5807 5808 5809 5810 5811 5814 5817 5817 5817 5819 5822 5825 5827 5830 5832 5834 5837 5839 5842 5844 5846 5848 5851 5854 5857 5860 5864 5866 5868 5870 5873 5876 5878 5881 5884 5886 5889 5890 5892 5894 5896 5898 5899 5901 5903 5904 5905 5906 5908 5909 5910 5911 5912 5913 5913 5914 5915 5917 5918 5920 5921 5922 5923
5678 5687 5694 5699 5709 5717 5722 5726 5731 5733 5737 5743 5748 5755 5762 5768 5773 5779 5784 5789 5794 5799 5802 5804 5807 5808 5807 5809 5812 5814 5813 5813 5817 5820 5822 5825 5828 5831 5832 5834 5837 5840 5842 5844 5846 5849 5852 5854 5857 5860 5863 5865 5868 5871 5873 5876 5879 5882 5884 5886 5888 5890 5892 5894 5896 5898 5899 5901 5902 5904 5905 5906 5907 5908 5909 5910 5910 5911 5911 5912 5914 5916 5917 5918 5919 5920
5674 5682 5690 5698 5705 5711 5716 5721 5726 5729 5735 5741 5746 5755 5763 5769 5773 5777 5781 5786 5792 5796 5799 5802 5805 5806 5805 5806 5809 5810 5811 5812 5815 5819 5821 5823 5827 5829 5830 5833 5836 5838 5840 5841 5843 5846 5848 5851 5853 5856 5859 5863 5865 5868 5870 5873 5876 5879 5881 5883 5885 5888 5890 5892 5894 5896 5898 5899 5900 5902 5903 5904 5904 5905 5906 5907 5908 5908 5909 5910 5912 5913 5914 5915 5917 5918
5669 5678 5687 5695 5702 5707 5712 5717 5721 5726 5732 5739 5748 5757 5763 5765 5768 5772 5777 5783 5789 5793 5797 5799 5801 5801 5801 5803 5805 5807 5808 5808 5812 5816 5818 5821 5825 5827 5828 5831 5833 5834 5836 5838 5840 5843 5845 5847 5850 5853 5856 5859 5862 5864 5867 5870 5872 5875 5878 5880 5882 5885 5887 5889 5891 5893 5896 5897 5898 5900 5900 5901 5902 5903 5903 5904 5905 5906 5907 5908 5909 5910 5911 5913 5914 5915
5667 5676 5685 5691 5697 5702 5707 5712 5716 5720 5728 5738 5750 5756 5757 5759 5763 5767 5770 5773 5777 5783 5790 5794 5797 5797 5797 5799 5801 5803 5804 5804 5807 5811 5813 5816 5822 5826 5827 5828 5829 5831 5833 5834 5837 5840 5842 5845 5847 5850 5853 5856 5859 5862 5864 5867 5869 5872 5875 5877 5880 5882 5884 5886 5888 5890 5893 5895 5896 5897 5898 5899 5899 5900 5901 5902 5902 5904 5905 5905 5906 5907 5908 5910 5911 5912
5665 5673 5681 5687 5692 5697 5700 5705 5710 5716 5727 5739 5746 5748 5749 5753 5758 5760 5761 5764 5769 5776 5783 5788 5792 5793 5793 5794 5795 5797 5799 5800 5802 5805 5809 5814 5820 5825 5825 5825 5826 5828 5830 5832 5834 5838 5840 5842 5845 5848 5851 5853 5856 5859 5861 5864 5866 5869 5872 5874 5876 5879 5881 5883 5885 5887 5890 5892 5894 5895 5896 5897 5897 5897 5898 5899 5900 5901 5902 5902 5903 5904 5905 5906 5908 5909
5662 5668 5674 5681 5688 5693 5697 5702 5708 5715 5724 5731 5732 5734 5739 5746 5752 5755 5756 5759 5766 5772 5777 5781 5785 5786 5787 5788 5791 5792 5793 5795 5798 5801 5806 5811 5817 5821 5822 5823 5824 5825 5827 5830 5832 5835 5837 5839 5842 5845 5848 5850 5853 5856 5858 5861 5863 5866 5868 5871 5873 5875 5877 5880 5882 5884 5886 5888 5890 5892 5893 5894 5895 5895 5895 5896 5897 5898 5898 5899 5900 5901 5902 5903 5905 5907
5657 5664 5671 5677 5684 5690 5695 5700 5706 5710 5717 5721 5723 5726 5732 5738 5746 5751 5753 5755 5760 5764 5767 5771 5774 5777 5780 5784 5787 5788 5789 5791 5794 5798 5803 5808 5812 5816 5820 5821 5821 5822 5825 5828 5830 5832 5834 5837 5840 5842 5845 5847 5850 5852 5855 5857 5860 5862 5864 5867 5869 5871 5873 5876 5878 5880 5882 5884 5886 5888 5890 5891 5892 5893 5893 5894 5894 5895 5895 5896 5897 5898 5899 5900 5902 5903
5652 5659 5667 5674 5681 5686 5690 5697 5701 5703 5708 5715 5719 5723 5728 5735 5741 5744 5746 5748 5752 5756 5760 5764 5767 5770 5774 5778 5781 5783 5783 5786 5790 5794 5799 5804 5809 5813 5816 5818 5818 5820 5823 5825 5827 5830 5832 5834 5837 5839 5841 5844 5847 5849 5851 5853 5856 5858 5861 5863 5864 5867 5870 5872 5874 5875 5877 5879 5882 5884 5886 5888 5889 5890 5891 5891 5892 5892 5892 5893 5894 5895 5896 5897 5899 5900
5648 5655 5663 5670 5677 5682 5687 5692 5695 5697 5702 5709 5715 5719 5725 5732 5735 5736 5737 5740 5744 5749 5754 5758 5761 5764 5767 5770 5774 5776 5778 5781 5785 5790 5796 5801 5805 5808 5813 5816 5817 5819 5821 5823 5825 5828 5830 5832 5834 5835 5837 5840 5843 5845 5847 5849 5852 5854 5857 5858 5860 5863 5865 5867 5868 5870 5872 5875 5877 5880 5882 5884 5886 5887 5888 5888 5889 5890 5890 5891 5891 5892 5893 5894 5895 5897
5645 5652 5659 5666 5673 5678 5683 5687 5688 5691 5696 5703 5709 5714 5720 5724 5725 5726 5731 5736 5740 5745 5750 5752 5755 5758 5761 5765 5769 5772 5776 5780 5782 5787 5793 5799 5803 5806 5810 5813 5815 5817 5820 5821 5823 5825 5828 5830 5831 5833 5835 5837 5840 5842 5844 5846 5848 5850 5852 5854 5857 5859 5860 5862 5863 5865 5867 5870 5872 5875 5877 5880 5882 5883 5884 5885 5886 5887 5888 5888 5889 5890 5891 5892 5893 5894
5644 5649 5656 5664 5670 5676 5681 5683 5683 5687 5692 5698 5703 5707 5711 5715 5716 5720 5728 5734 5738 5743 5747 5749 5750 5753 5757 5762 5767 5771 5775 5777 5780 5786 5793 5797 5801 5804 5807 5809 5811 5813 5816 5818 5820 5822 5825 5827 5829 5831 5833 5835 5837 5839 5841 5843 5845 5846 5848 5850 5852 5854 5856 5858 5859 5861 5863 5865 5867 5870 5872 5875 5877 5879 5881 5882 5883 5884 5885 5886 5887 5888 5889 5889 5890 5891
5639 5643 5649 5656 5663 5669 5674 5676 5677 5681 5687 5693 5697 5700 5703 5708 5711 5716 5723 5731 5736 5740 5742 5744 5747 5750 5754 5759 5764 5769 5772 5774 5779 5786 5791 5794 5797 5801 5804 5805 5807 5809 5812 5815 5817 5818 5821 5824 5826 5829 5831 5832 5834 5837 5838 5840 5842 5843 5845 5847 5849 5851 5853 5854 5856 5857 5859 5861 5863 5865 5867 5870 5872 5875 5877 5878 5879 5880 5881 5882 5884 5885 5886 5887 5888 5889
5632 5636 5642 5649 5654 5659 5664 5668 5672 5677 5682 5687 5691 5694 5699 5704 5709 5713 5719 5727 5733 5737 5739 5741 5745 5749 5753 5757 5762 5766 5769 5772 5776 5782 5786 5789 5793 5796 5799 5801 5803 5805 5808 5811 5813 5815 5817 5820 5823 5825 5828 5830 5832 5834 5836 5838 5839 5841 5843 5844 5846 5848 5849 5851 5853 5854 5855 5857 5859 5861 5863 5865 5867 5870 5872 5874 5875 5876 5877 5879 5880 5882 5883 5884 5885 5886
5629 5635 5641 5647 5650 5656 5662 5666 5669 5673 5679 5684 5687 5690 5696 5701 5706 5712 5719 5724 5728 5732 5736 5740 5744 5748 5752 5756 5760 5764 5768 5770 5772 5777 5781 5785 5788 5792 5795 5798 5800 5802 5804 5806 5809 5811 5813 5815 5818 5822 5824 5826 5828 5830 5833 5835 5836 5838 5840 5841 5843 5844 5846 5848 5850 5851 5852 5854 5855 5857 5859 5861 5863 5865 5867 5869 5870 5872 5874 5875 5877 5878 5879 5880 5881 5882
5629 5635 5641 5645 5649 5655 5658 5659 5662 5669 5675 5679 5683 5689 5694 5698 5702 5709 5716 5721 5726 5729 5732 5736 5741 5745 5749 5752 5756 5761 5765 5768 5770 5773 5777 5780 5784 5788 5791 5795 5797 5799 5800 5803 5805 5807 5809 5811 5814 5818 5820 5823 5825 5827 5829 5831 5833 5835 5837 5838 5839 5840 5842 5844 5846 5848 5849 5851 5852 5853 5855 5857 5859 5861 5862 5864 5866 5868 5870 5871 5873 5873 5875 5876 5877 5878
5629 5634 5638 5642 5647 5651 5652 5653 5659 5669 5676 5679 5682 5686 5690 5693 5697 5703 5710 5717 5724 5728 5730 5733 5738 5742 5746 5749 5752 5756 5761 5764 5767 5770 5773 5777 5781 5784 5787 5790 5794 5795 5797 5799 5802 5803 5805 5808 5811 5814 5817 5819 5821 5823 5826 5828 5830 5832 5833 5834 5835 5837 5839 5841 5843 5844 5846 5848 5849 5851 5852 5853 5855 5856 5858 5860 5862 5864 5866 5867 5868 5869 5870 5872 5873 5873
5628 5631 5634 5638 5643 5648 5653 5656 5661 5668 5675 5676 5675 5675 5680 5685 5691 5696 5702 5709 5716 5721 5725 5730 5734 5737 5741 5744 5747 5752 5757 5760 5763 5766 5769 5772 5776 5779 5782 5786 5789 5791 5793 5795 5798 5800 5802 5804 5807 5810 5813 5815 5817 5819 5821 5824 5826 5828 5830 5831 5832 5834 5836 5837 5839 5840 5842 5844 5846 5847 5848 5850 5851 5853 5854 5856 5858 5860 5861 5862 5863 5865 5866 5867 5867 5868
5627 5628 5631 5634 5638 5642 5648 5651 5653 5659 5664 5664 5661 5663 5671 5679 5684 5688 5694 5701 5708 5714 5718 5723 5728 5732 5736 5740 5743 5748 5753 5756 5759 5762 5765 5767 5771 5774 5777 5780 5784 5787 5789 5791 5794 5796 5798 5800 5803 5806 5809 5811 5813 5815 5817 5819 5822 5824 5826 5827 5829 5831 5832 5834 5835 5836 5838 5840 5842 5843 5844 5846 5847 5849 5850 5852 5854 5855 5856 5857 5859 5860 5860 5861 5862 5862
5624 5625 5627 5629 5632 5637 5641 5642 5644 5649 5655 5655 5654 5658 5668 5678 5683 5687 5692 5698 5705 5710 5712 5715 5721 5727 5731 5735 5739 5744 5748 5751 5755 5758 5761 5763 5765 5769 5772 5776 5779 5782 5785 5787 5790 5792 5794 5797 5799 5802 5805 5807 5808 5810 5813 5815 5817 5819 5821 5824 5825 5827 5828 5830 5831 5832 5834 5836 5837 5839 5840 5841 5843 5844 5846 5847 5849 5850 5851 5852 5853 5854 5854 5855 5856 5856